Regional Weather Roundup
Issued by NWS Sioux Falls, SD

Home | Current Version | Previous Version | Text Only | Print | Product List | Glossary Off
Versions: 1 2 3 4 5 6 7 8 9 10 11 12 13 14 15 16 17 18 19 20 21 22 23 24 25 26 27 28 29 30 31 32 33 34 35 36 37 38 39 40 41 42 43 44 45 46 47 48 49 50

000
ASUS43 KFSD 252010
RWRFSD

WEATHER ROUNDUP FOR SE SOUTH DAKOTA/SW MINNESOTA/NW IOWA
NATIONAL WEATHER SERVICE SIOUX FALLS SD
200 PM CST TUE NOV 25 2014

NOTE: "FAIR" INDICATES FEW OR NO CLOUDS BELOW 12,000 FEET WITH NO
SIGNIFICANT WEATHER AND OR OBSTRUCTIONS TO VISIBILITY.


SDZ038>040-050-052>070-252100-
SOUTHEAST SOUTH DAKOTA

CITY           SKY/WX    TMP DP  RH WIND       PRES   REMARKS
CHAMBERLAIN    CLOUDY    38  26  61 S9        29.80F
HURON          CLOUDY    35  25  66 SE10      29.85F WCI  27
MADISON        FAIR      32  21  64 S12       29.88F WCI  23
MITCHELL       CLOUDY    39  27  62 SE9       29.87F
SIOUX FALLS    CLOUDY    36  20  52 S12       29.92F
WINNER         CLOUDY    40  23  50 SW10      29.79F
YANKTON        PTSUNNY   43  27  52 S8        29.91F
$$

MNZ071-072-080-081-089-090-097-098-252100-
SOUTHWEST MINNESOTA

CITY           SKY/WX    TMP DP  RH WIND       PRES   REMARKS
FAIRMONT       CLOUDY    30   7  37 S9        30.00F WCI  22
JACKSON        PTSUNNY   34  12  40 S9        29.98F WCI  26
LUVERNE        MOSUNNY   36  19  51 S10       29.94F
MARSHALL       CLOUDY    34  18  51 SW7       29.94F WCI  28
MONTEVIDEO     CLOUDY    28  19  69 S5        29.97F WCI  23
PIPESTONE      CLOUDY    30  19  64 SW9       29.91F WCI  22
REDWOOD FALLS  CLOUDY    31  12  45 S10       29.98F WCI  22
TRACY          CLOUDY    33  18  54 SW10      29.95F WCI  25
WINDOM         PTSUNNY   34  14  44 S9        29.96F WCI  26
WORTHINGTON    MOSUNNY   32  16  51 S12       29.95F WCI  23
$$

IAZ001>003-012>014-020>022-031-032-NEZ013-014-SDZ071-252100-
NORTHWEST IOWA

CITY           SKY/WX    TMP DP  RH WIND       PRES   REMARKS
CHEROKEE       SUNNY     36  15  42 S7        29.98F
DENISON        SUNNY     37  16  41 SW13      29.99F
ESTHERVILLE    CLOUDY    33   7  33 S12       29.99F WCI  24
LE MARS        MOSUNNY   37  21  52 S14       29.96F
ORANGE CITY    MOSUNNY   37  18  44 S12       29.95F
SHELDON        MOSUNNY   36  16  44 S12       29.94F
SIOUX CITY     MOSUNNY   41  23  48 S9        29.97F
SPENCER        MOSUNNY   35  13  40 S10       29.99F WCI  27
STORM LAKE     SUNNY     36  14  41 S13       29.99F
$$

ABBREVIATIONS USED IN REMARKS
   TC - TEMPERATURE IN CELSIUS
  WCI - WIND CHILL INDEX
   HX - HEAT INDEX
  VSB - VISIBILITY



USA.gov is the U.S. government's official web portal to all federal, state and local government web resources and services.